Time,TemperatureF,DewpointF,PressureIn,WindDirection,WindDirectionDegrees,WindSpeedMPH,WindSpeedGustMPH,Humidity,HourlyPrecipIn,Conditions,Clouds,dailyrainin,SolarRadiationWatts/m^2,SoftwareType,DateUTC
2013-01-24 00:00:00,31.1,30.6,30.24,South,173,0.0,0.0,98,0.00,,---,0.31,0.00,VWS V14.01,2013-01-24 08:00:00,
2013-01-24 00:01:00,31.1,30.6,30.24,South,173,0.0,0.0,98,0.00,,---,0.00,0.00,VWS V14.01,2013-01-24 08:01:00,
2013-01-24 00:06:00,31.1,30.6,30.23,South,173,0.0,0.0,98,0.00,,---,0.00,0.00,VWS V14.01,2013-01-24 08:06:00,
2013-01-24 00:10:00,31.1,30.6,30.24,South,173,0.0,0.0,98,0.00,,---,0.00,0.00,VWS V14.01,2013-01-24 08:10:00,
2013-01-24 00:11:00,31.2,30.7,30.23,South,173,0.0,0.0,98,0.00,,---,0.00,0.00,VWS V14.01,2013-01-24 08:11:00,
2013-01-24 00:16:00,31.3,30.8,30.23,South,173,0.0,1.0,98,0.00,,---,0.00,0.00,VWS V14.01,2013-01-24 08:16:00,
2013-01-24 00:20:00,31.3,30.8,30.23,South,173,0.0,1.0,98,0.00,,---,0.00,0.00,VWS V14.01,2013-01-24 08:20:00,
2013-01-24 00:21:00,31.4,30.9,30.23,South,173,0.0,0.0,98,0.00,,---,0.00,0.00,VWS V14.01,2013-01-24 08:21:00,
2013-01-24 00:26:00,31.5,31.0,30.24,South,173,0.0,0.0,98,0.00,,---,0.00,0.00,VWS V14.01,2013-01-24 08:26:00,
2013-01-24 00:30:00,31.5,31.0,30.24,South,173,0.0,0.0,98,0.00,,---,0.00,0.00,VWS V14.01,2013-01-24 08:30:00,
2013-01-24 00:31:00,31.5,31.0,30.24,South,173,0.0,0.0,98,0.00,,---,0.00,0.00,VWS V14.01,2013-01-24 08:31:00,
2013-01-24 00:36:00,31.6,31.1,30.23,South,173,0.0,0.0,98,0.00,,---,0.00,0.00,VWS V14.01,2013-01-24 08:36:00,
2013-01-24 00:40:00,31.6,31.1,30.23,South,173,0.0,0.0,98,0.00,,---,0.00,0.00,VWS V14.01,2013-01-24 08:40:00,
2013-01-24 00:41:00,31.5,31.0,30.23,South,173,0.0,0.0,98,0.00,,---,0.00,0.00,VWS V14.01,2013-01-24 08:41:00,
2013-01-24 00:46:00,31.5,31.0,30.23,South,173,0.0,0.0,98,0.00,,---,0.00,0.00,VWS V14.01,2013-01-24 08:46:00,
2013-01-24 00:50:00,31.6,31.1,30.24,South,173,0.0,0.0,98,0.00,,---,0.00,0.00,VWS V14.01,2013-01-24 08:50:00,
2013-01-24 00:51:00,31.6,31.1,30.24,South,173,0.0,0.0,98,0.00,,---,0.00,0.00,VWS V14.01,2013-01-24 08:51:00,
2013-01-24 00:56:00,31.6,31.1,30.24,South,173,0.0,0.0,98,0.00,,---,0.00,0.00,VWS V14.01,2013-01-24 08:56:00,
2013-01-24 01:00:00,31.6,31.1,30.24,South,173,0.0,0.0,98,0.00,,---,0.00,0.00,VWS V14.01,2013-01-24 09:00:00,
2013-01-24 01:01:00,31.7,31.2,30.24,South,173,0.0,0.0,98,0.00,,---,0.00,0.00,VWS V14.01,2013-01-24 09:01:00,
2013-01-24 01:06:00,31.7,31.2,30.23,South,173,0.0,0.0,98,0.00,,---,0.00,0.00,VWS V14.01,2013-01-24 09:06:00,
2013-01-24 01:10:00,31.7,31.2,30.23,South,173,0.0,0.0,98,0.00,,---,0.00,0.00,VWS V14.01,2013-01-24 09:10:00,
2013-01-24 01:11:00,31.7,31.2,30.24,South,173,0.0,0.0,98,0.00,,---,0.00,0.00,VWS V14.01,2013-01-24 09:11:00,
2013-01-24 01:16:00,31.7,31.5,30.24,South,173,0.0,0.0,99,0.00,,---,0.00,0.00,VWS V14.01,2013-01-24 09:16:00,
2013-01-24 01:20:00,31.8,31.5,30.25,South,173,1.0,1.0,99,0.00,,---,0.00,0.00,VWS V14.01,2013-01-24 09:20:00,
2013-01-24 01:21:00,31.9,31.6,30.25,South,173,0.0,1.0,99,0.00,,---,0.00,0.00,VWS V14.01,2013-01-24 09:21:00,
2013-01-24 01:26:00,32.0,31.8,30.25,South,173,0.0,1.0,99,0.00,,---,0.00,0.00,VWS V14.01,2013-01-24 09:26:00,
2013-01-24 01:30:00,32.0,31.5,30.25,South,173,1.0,1.0,98,0.00,,---,0.00,0.00,VWS V14.01,2013-01-24 09:30:00,
2013-01-24 01:31:00,32.1,31.6,30.25,South,173,0.0,1.0,98,0.00,,---,0.00,0.00,VWS V14.01,2013-01-24 09:31:00,
2013-01-24 01:36:00,32.2,31.7,30.24,South,173,0.0,1.0,98,0.00,,---,0.00,0.00,VWS V14.01,2013-01-24 09:36:00,
2013-01-24 01:40:00,32.2,31.7,30.25,South,173,0.0,1.0,98,0.00,,---,0.00,0.00,VWS V14.01,2013-01-24 09:40:00,
2013-01-24 01:41:00,32.3,31.8,30.25,South,173,0.0,0.0,98,0.00,,---,0.00,0.00,VWS V14.01,2013-01-24 09:41:00,
2013-01-24 01:46:00,32.3,32.0,30.25,South,173,0.0,0.0,99,0.00,,---,0.00,0.00,VWS V14.01,2013-01-24 09:46:00,
2013-01-24 01:50:00,32.3,32.3,30.25,South,173,1.0,2.0,100,0.00,,---,0.00,0.00,VWS V14.01,2013-01-24 09:50:00,
2013-01-24 01:51:00,32.2,31.7,30.25,South,173,0.0,2.0,98,0.00,,---,0.00,0.00,VWS V14.01,2013-01-24 09:51:00,
2013-01-24 01:56:00,32.2,31.7,30.25,South,173,0.0,2.0,98,0.00,,---,0.00,0.00,VWS V14.01,2013-01-24 09:56:00,
2013-01-24 02:00:00,32.3,31.8,30.25,South,173,0.0,2.0,98,0.00,,---,0.00,0.00,VWS V14.01,2013-01-24 10:00:00,
2013-01-24 02:01:00,32.3,31.8,30.25,South,173,0.0,0.0,98,0.00,,---,0.00,0.00,VWS V14.01,2013-01-24 10:01:00,
2013-01-24 02:06:00,32.3,32.3,30.25,South,173,0.0,1.0,100,0.00,,---,0.00,0.00,VWS V14.01,2013-01-24 10:06:00,
2013-01-24 02:10:00,32.3,32.0,30.25,South,173,0.0,1.0,99,0.00,,---,0.00,0.00,VWS V14.01,2013-01-24 10:10:00,
2013-01-24 02:11:00,32.4,32.2,30.25,South,173,0.0,2.0,99,0.00,,---,0.00,0.00,VWS V14.01,2013-01-24 10:11:00,
2013-01-24 02:16:00,32.5,32.2,30.25,South,173,0.0,2.0,99,0.00,,---,0.00,0.00,VWS V14.01,2013-01-24 10:16:00,
2013-01-24 02:20:00,32.5,32.2,30.25,South,173,0.0,2.0,99,0.00,,---,0.00,0.00,VWS V14.01,2013-01-24 10:20:00,
2013-01-24 02:21:00,32.5,32.2,30.25,South,173,0.0,1.0,99,0.00,,---,0.00,0.00,VWS V14.01,2013-01-24 10:21:00,
2013-01-24 02:26:00,32.5,32.2,30.25,South,173,0.0,1.0,99,0.00,,---,0.00,0.00,VWS V14.01,2013-01-24 10:26:00,
2013-01-24 02:30:00,32.5,32.2,30.25,South,173,0.0,1.0,99,0.00,,---,0.00,0.00,VWS V14.01,2013-01-24 10:30:00,
2013-01-24 02:31:00,32.5,32.2,30.25,South,173,0.0,0.0,99,0.00,,---,0.00,0.00,VWS V14.01,2013-01-24 10:31:00,
2013-01-24 02:36:00,32.5,32.2,30.25,South,173,0.0,0.0,99,0.00,,---,0.00,0.00,VWS V14.01,2013-01-24 10:36:00,
2013-01-24 02:40:00,32.5,32.2,30.25,South,173,0.0,0.0,99,0.00,,---,0.00,0.00,VWS V14.01,2013-01-24 10:40:00,
2013-01-24 02:41:00,32.6,32.3,30.25,South,173,0.0,0.0,99,0.00,,---,0.00,0.00,VWS V14.01,2013-01-24 10:41:00,
2013-01-24 02:46:00,32.6,32.3,30.25,South,173,0.0,1.0,99,0.00,,---,0.00,0.00,VWS V14.01,2013-01-24 10:46:00,
2013-01-24 02:50:00,32.6,32.3,30.25,South,173,1.0,1.0,99,0.00,,---,0.00,0.00,VWS V14.01,2013-01-24 10:50:00,
2013-01-24 02:51:00,32.7,32.5,30.26,South,173,1.0,2.0,99,0.00,,---,0.00,0.00,VWS V14.01,2013-01-24 10:51:00,
2013-01-24 02:56:00,32.9,32.7,30.25,South,173,0.0,3.0,99,0.00,,---,0.00,0.00,VWS V14.01,2013-01-24 10:56:00,
2013-01-24 03:00:00,33.0,32.8,30.25,South,173,0.0,3.0,99,0.00,,---,0.00,0.00,VWS V14.01,2013-01-24 11:00:00,
2013-01-24 03:01:00,33.1,32.8,30.25,South,173,1.0,2.0,99,0.00,,---,0.00,0.00,VWS V14.01,2013-01-24 11:01:00,
2013-01-24 03:06:00,33.3,33.0,30.25,South,173,3.0,3.0,99,0.00,,---,0.00,0.00,VWS V14.01,2013-01-24 11:06:00,
2013-01-24 03:10:00,33.5,33.2,30.25,South,173,3.0,3.0,99,0.00,,---,0.00,0.00,VWS V14.01,2013-01-24 11:10:00,
2013-01-24 03:11:00,33.6,33.3,30.25,South,173,3.0,3.0,99,0.00,,---,0.00,0.00,VWS V14.01,2013-01-24 11:11:00,
2013-01-24 03:16:00,33.8,33.5,30.25,South,173,3.0,4.0,99,0.00,,---,0.00,0.00,VWS V14.01,2013-01-24 11:16:00,
2013-01-24 03:20:00,33.8,33.5,30.25,South,173,2.0,4.0,99,0.00,,---,0.00,0.00,VWS V14.01,2013-01-24 11:20:00,
2013-01-24 03:21:00,34.0,33.8,30.25,South,174,3.0,5.0,99,0.00,,---,0.00,0.00,VWS V14.01,2013-01-24 11:21:00,
2013-01-24 03:26:00,34.2,34.0,30.25,South,172,2.0,5.0,99,0.00,,---,0.00,0.00,VWS V14.01,2013-01-24 11:26:00,
2013-01-24 03:30:00,34.2,34.0,30.25,South,173,2.0,5.0,99,0.00,,---,0.00,0.00,VWS V14.01,2013-01-24 11:30:00,
2013-01-24 03:31:00,34.3,34.0,30.25,North,360,5.0,5.0,99,0.00,,---,0.00,0.00,VWS V14.01,2013-01-24 11:31:00,
2013-01-24 03:36:00,34.4,34.2,30.24,NNW,343,4.0,5.0,99,0.00,,---,0.00,0.00,VWS V14.01,2013-01-24 11:36:00,
2013-01-24 03:40:00,34.4,34.2,30.25,North,355,1.0,5.0,99,0.00,,---,0.00,0.00,VWS V14.01,2013-01-24 11:40:00,
2013-01-24 03:41:00,34.5,34.2,30.24,NNW,348,6.0,6.0,99,0.01,,---,0.01,0.00,VWS V14.01,2013-01-24 11:41:00,
2013-01-24 03:46:00,34.6,34.3,30.24,NNW,332,4.0,7.0,99,0.01,,---,0.01,0.00,VWS V14.01,2013-01-24 11:46:00,
2013-01-24 03:50:00,34.6,34.3,30.24,NNW,344,2.0,7.0,99,0.01,,---,0.01,0.00,VWS V14.01,2013-01-24 11:50:00,
2013-01-24 03:51:00,34.6,34.3,30.24,NNW,335,6.0,7.0,99,0.01,,---,0.01,0.00,VWS V14.01,2013-01-24 11:51:00,
2013-01-24 03:56:00,34.6,34.3,30.24,North,350,6.0,7.0,99,0.01,,---,0.01,0.00,VWS V14.01,2013-01-24 11:56:00,
2013-01-24 04:00:00,34.6,34.3,30.24,North,355,5.0,7.0,99,0.01,,---,0.01,0.00,VWS V14.01,2013-01-24 12:00:00,
2013-01-24 04:01:00,34.5,34.2,30.24,NNW,340,6.0,6.0,99,0.01,,---,0.01,0.00,VWS V14.01,2013-01-24 12:01:00,
2013-01-24 04:06:00,34.5,34.2,30.24,NNW,334,3.0,6.0,99,0.01,,---,0.01,0.00,VWS V14.01,2013-01-24 12:06:00,
2013-01-24 04:10:00,34.5,34.2,30.24,NNW,344,6.0,6.0,99,0.01,,---,0.01,0.00,VWS V14.01,2013-01-24 12:10:00,
2013-01-24 04:11:00,34.4,34.2,30.24,NNW,344,2.0,6.0,99,0.01,,---,0.01,0.00,VWS V14.01,2013-01-24 12:11:00,
2013-01-24 04:16:00,34.4,34.2,30.24,NNW,344,2.0,6.0,99,0.01,,---,0.01,0.00,VWS V14.01,2013-01-24 12:16:00,
2013-01-24 04:20:00,34.4,34.2,30.23,NNW,344,3.0,6.0,99,0.01,,---,0.01,0.00,VWS V14.01,2013-01-24 12:20:00,
2013-01-24 04:21:00,34.3,34.0,30.23,NNW,345,4.0,4.0,99,0.01,,---,0.01,0.00,VWS V14.01,2013-01-24 12:21:00,
2013-01-24 04:26:00,34.2,34.0,30.23,NNW,345,5.0,5.0,99,0.01,,---,0.01,0.00,VWS V14.01,2013-01-24 12:26:00,
2013-01-24 04:30:00,34.2,34.0,30.23,NNW,345,5.0,6.0,99,0.01,,---,0.01,0.00,VWS V14.01,2013-01-24 12:30:00,
2013-01-24 04:31:00,34.1,33.8,30.23,NNW,346,5.0,6.0,99,0.01,,---,0.01,0.00,VWS V14.01,2013-01-24 12:31:00,
2013-01-24 04:36:00,34.2,34.0,30.23,North,351,2.0,6.0,99,0.01,,---,0.01,0.00,VWS V14.01,2013-01-24 12:36:00,
2013-01-24 04:40:00,34.2,34.0,30.23,North,351,3.0,6.0,99,0.01,,---,0.01,0.00,VWS V14.01,2013-01-24 12:40:00,
2013-01-24 04:41:00,34.2,34.0,30.23,NNW,348,2.0,5.0,99,0.01,,---,0.01,0.00,VWS V14.01,2013-01-24 12:41:00,
2013-01-24 04:46:00,34.2,34.0,30.23,NNW,348,3.0,5.0,99,0.01,,---,0.01,0.00,VWS V14.01,2013-01-24 12:46:00,
2013-01-24 04:50:00,34.1,33.8,30.23,NNW,344,2.0,5.0,99,0.01,,---,0.01,0.00,VWS V14.01,2013-01-24 12:50:00,
2013-01-24 04:51:00,34.1,33.8,30.22,NNW,342,5.0,5.0,99,0.00,,---,0.01,0.00,VWS V14.01,2013-01-24 12:51:00,
2013-01-24 04:56:00,34.1,33.8,30.22,NNW,344,5.0,6.0,99,0.00,,---,0.01,0.00,VWS V14.01,2013-01-24 12:56:00,
2013-01-24 05:00:00,34.1,33.8,30.23,North,355,4.0,6.0,99,0.00,,---,0.01,0.00,VWS V14.01,2013-01-24 13:00:00,
2013-01-24 05:01:00,34.1,33.8,30.23,North,349,3.0,5.0,99,0.00,,---,0.01,0.00,VWS V14.01,2013-01-24 13:01:00,
2013-01-24 05:06:00,34.0,33.8,30.23,North,349,2.0,5.0,99,0.00,,---,0.01,0.00,VWS V14.01,2013-01-24 13:06:00,
2013-01-24 05:10:00,34.0,33.8,30.23,North,349,3.0,5.0,99,0.00,,---,0.01,0.00,VWS V14.01,2013-01-24 13:10:00,
2013-01-24 05:11:00,34.0,33.8,30.23,North,349,2.0,4.0,99,0.00,,---,0.01,0.00,VWS V14.01,2013-01-24 13:11:00,
2013-01-24 05:16:00,34.0,33.8,30.23,NNW,342,3.0,5.0,99,0.00,,---,0.01,0.00,VWS V14.01,2013-01-24 13:16:00,
2013-01-24 05:20:00,34.0,33.8,30.23,NNW,342,3.0,5.0,99,0.00,,---,0.01,0.00,VWS V14.01,2013-01-24 13:20:00,
2013-01-24 05:21:00,34.0,33.8,30.23,NNW,342,3.0,5.0,99,0.00,,---,0.01,0.00,VWS V14.01,2013-01-24 13:21:00,
2013-01-24 05:26:00,34.0,33.8,30.24,NNW,342,2.0,5.0,99,0.00,,---,0.01,0.00,VWS V14.01,2013-01-24 13:26:00,
2013-01-24 05:30:00,34.0,33.8,30.24,NNW,342,2.0,5.0,99,0.00,,---,0.01,0.00,VWS V14.01,2013-01-24 13:30:00,
2013-01-24 05:31:00,33.9,33.7,30.23,NNW,342,0.0,3.0,99,0.00,,---,0.01,0.00,VWS V14.01,2013-01-24 13:31:00,
2013-01-24 05:36:00,33.9,33.7,30.24,NNW,342,1.0,3.0,99,0.00,,---,0.01,0.00,VWS V14.01,2013-01-24 13:36:00,
2013-01-24 05:40:00,33.9,33.7,30.24,NNW,342,2.0,3.0,99,0.00,,---,0.01,0.00,VWS V14.01,2013-01-24 13:40:00,
2013-01-24 05:41:00,33.9,33.7,30.23,NNW,342,2.0,3.0,99,0.00,,---,0.01,0.00,VWS V14.01,2013-01-24 13:41:00,
2013-01-24 05:46:00,33.9,33.7,30.24,NNW,343,0.0,3.0,99,0.00,,---,0.01,0.00,VWS V14.01,2013-01-24 13:46:00,
2013-01-24 05:50:00,33.9,33.7,30.24,NNW,342,3.0,3.0,99,0.00,,---,0.01,0.00,VWS V14.01,2013-01-24 13:50:00,
2013-01-24 05:51:00,33.9,33.7,30.24,NNW,342,0.0,3.0,99,0.00,,---,0.01,0.00,VWS V14.01,2013-01-24 13:51:00,
2013-01-24 05:56:00,33.8,33.5,30.24,NNW,343,2.0,3.0,99,0.00,,---,0.01,0.00,VWS V14.01,2013-01-24 13:56:00,
2013-01-24 06:00:00,33.9,33.7,30.24,NNW,342,2.0,3.0,99,0.00,,---,0.01,0.00,VWS V14.01,2013-01-24 14:00:00,
2013-01-24 06:01:00,33.9,33.7,30.24,NNW,343,1.0,2.0,99,0.00,,---,0.01,0.00,VWS V14.01,2013-01-24 14:01:00,
2013-01-24 06:06:00,33.9,33.7,30.25,NNW,342,0.0,3.0,99,0.00,,---,0.01,0.00,VWS V14.01,2013-01-24 14:06:00,
2013-01-24 06:10:00,33.9,33.7,30.24,NNW,343,1.0,3.0,99,0.00,,---,0.01,0.00,VWS V14.01,2013-01-24 14:10:00,
2013-01-24 06:11:00,34.0,33.8,30.24,NNW,342,3.0,4.0,99,0.00,,---,0.01,0.00,VWS V14.01,2013-01-24 14:11:00,
2013-01-24 06:16:00,34.0,33.8,30.25,NNW,343,2.0,4.0,99,0.00,,---,0.01,0.00,VWS V14.01,2013-01-24 14:16:00,
2013-01-24 06:20:00,34.0,33.8,30.25,NNW,343,2.0,4.0,99,0.00,,---,0.01,0.00,VWS V14.01,2013-01-24 14:20:00,
2013-01-24 06:21:00,34.1,33.8,30.24,NNW,343,0.0,5.0,99,0.00,,---,0.01,0.00,VWS V14.01,2013-01-24 14:21:00,
2013-01-24 06:26:00,34.0,33.8,30.24,NNW,343,0.0,5.0,99,0.00,,---,0.01,0.00,VWS V14.01,2013-01-24 14:26:00,
2013-01-24 06:30:00,34.0,33.8,30.24,NNW,342,0.0,5.0,99,0.00,,---,0.01,0.00,VWS V14.01,2013-01-24 14:30:00,
2013-01-24 06:31:00,34.0,33.8,30.24,NNW,343,0.0,1.0,99,0.00,,---,0.01,0.00,VWS V14.01,2013-01-24 14:31:00,
2013-01-24 06:36:00,33.8,33.5,30.24,NNW,343,0.0,1.0,99,0.00,,---,0.01,0.00,VWS V14.01,2013-01-24 14:36:00,
2013-01-24 06:40:00,33.8,33.5,30.24,NNW,343,0.0,1.0,99,0.00,,---,0.01,0.00,VWS V14.01,2013-01-24 14:40:00,
2013-01-24 06:41:00,33.7,33.5,30.23,NNW,343,0.0,1.0,99,0.00,,---,0.01,0.00,VWS V14.01,2013-01-24 14:41:00,
2013-01-24 06:46:00,33.6,33.3,30.23,NNW,342,1.0,1.0,99,0.00,,---,0.01,0.00,VWS V14.01,2013-01-24 14:46:00,
2013-01-24 06:50:00,33.6,33.3,30.23,NNW,342,1.0,2.0,99,0.00,,---,0.01,0.00,VWS V14.01,2013-01-24 14:50:00,
2013-01-24 06:51:00,33.6,33.3,30.23,NNW,343,0.0,2.0,99,0.00,,---,0.01,0.00,VWS V14.01,2013-01-24 14:51:00,
2013-01-24 06:56:00,33.5,33.2,30.22,NNW,343,0.0,2.0,99,0.00,,---,0.01,0.00,VWS V14.01,2013-01-24 14:56:00,
2013-01-24 07:00:00,33.5,33.2,30.22,NNW,343,0.0,2.0,99,0.00,,---,0.01,0.00,VWS V14.01,2013-01-24 15:00:00,
2013-01-24 07:01:00,33.4,33.2,30.22,NNW,343,0.0,1.0,99,0.00,,---,0.01,0.00,VWS V14.01,2013-01-24 15:01:00,
2013-01-24 07:06:00,33.3,33.0,30.22,NNW,342,0.0,1.0,99,0.00,,---,0.01,0.00,VWS V14.01,2013-01-24 15:06:00,
2013-01-24 07:10:00,33.3,33.0,30.22,NNW,343,0.0,1.0,99,0.00,,---,0.01,0.00,VWS V14.01,2013-01-24 15:10:00,
2013-01-24 07:11:00,33.3,33.0,30.22,NNW,342,0.0,0.0,99,0.00,,---,0.01,0.00,VWS V14.01,2013-01-24 15:11:00,
2013-01-24 07:16:00,33.2,33.0,30.22,NNW,343,0.0,0.0,99,0.00,,---,0.01,0.00,VWS V14.01,2013-01-24 15:16:00,
2013-01-24 07:20:00,33.2,33.0,30.22,NNW,342,0.0,0.0,99,0.00,,---,0.01,0.00,VWS V14.01,2013-01-24 15:20:00,
2013-01-24 07:21:00,33.2,33.0,30.22,NNW,342,1.0,2.0,99,0.00,,---,0.01,0.00,VWS V14.01,2013-01-24 15:21:00,
2013-01-24 07:26:00,33.1,32.8,30.22,NNW,343,2.0,2.0,99,0.00,,---,0.01,0.00,VWS V14.01,2013-01-24 15:26:00,
2013-01-24 07:30:00,33.1,32.8,30.21,NNW,343,0.0,2.0,99,0.00,,---,0.01,0.00,VWS V14.01,2013-01-24 15:30:00,
2013-01-24 07:31:00,33.1,32.8,30.21,NNW,343,0.0,2.0,99,0.00,,---,0.01,0.00,VWS V14.01,2013-01-24 15:31:00,
2013-01-24 07:36:00,32.9,32.7,30.22,NNW,343,0.0,2.0,99,0.00,,---,0.01,0.00,VWS V14.01,2013-01-24 15:36:00,
2013-01-24 07:40:00,32.9,32.7,30.21,NNW,343,0.0,2.0,99,0.00,,---,0.01,0.00,VWS V14.01,2013-01-24 15:40:00,
2013-01-24 07:41:00,32.8,32.5,30.21,NNW,343,0.0,0.0,99,0.00,,---,0.01,0.00,VWS V14.01,2013-01-24 15:41:00,
2013-01-24 07:46:00,32.7,32.5,30.21,NNW,343,0.0,3.0,99,0.00,,---,0.01,0.00,VWS V14.01,2013-01-24 15:46:00,
2013-01-24 07:50:00,32.7,32.5,30.21,NNW,343,0.0,1.0,99,0.00,,---,0.01,5.00,VWS V14.01,2013-01-24 15:50:00,
2013-01-24 07:55:00,32.6,32.3,30.22,NNW,343,0.0,1.0,99,0.00,,---,0.01,5.00,VWS V14.01,2013-01-24 15:55:00,
2013-01-24 08:00:00,32.6,32.3,30.22,NNW,343,0.0,0.0,99,0.00,,---,0.01,7.00,VWS V14.01,2013-01-24 16:00:00,
2013-01-24 08:05:00,32.5,32.2,30.22,NNW,343,2.0,2.0,99,0.00,,---,0.01,9.00,VWS V14.01,2013-01-24 16:05:00,
2013-01-24 08:10:00,32.5,32.2,30.22,NNW,343,1.0,3.0,99,0.00,,---,0.01,14.00,VWS V14.01,2013-01-24 16:10:00,
2013-01-24 08:15:00,32.5,32.2,30.22,NNW,343,2.0,3.0,99,0.00,,---,0.01,12.00,VWS V14.01,2013-01-24 16:15:00,
2013-01-24 08:20:00,32.6,32.3,30.22,NNW,343,0.0,2.0,99,0.00,,---,0.01,16.00,VWS V14.01,2013-01-24 16:20:00,
2013-01-24 08:25:00,32.6,32.3,30.22,NNW,343,1.0,3.0,99,0.00,,---,0.01,23.00,VWS V14.01,2013-01-24 16:25:00,
2013-01-24 08:30:00,32.6,32.3,30.22,NNW,343,0.0,0.0,99,0.00,,---,0.01,30.00,VWS V14.01,2013-01-24 16:30:00,
2013-01-24 08:35:00,32.7,32.5,30.22,NNW,343,0.0,2.0,99,0.00,,---,0.01,28.00,VWS V14.01,2013-01-24 16:35:00,
2013-01-24 08:40:00,32.8,32.5,30.22,NNW,343,0.0,0.0,99,0.00,,---,0.01,30.00,VWS V14.01,2013-01-24 16:40:00,
2013-01-24 08:45:00,32.8,32.5,30.22,NNW,343,1.0,1.0,99,0.00,,---,0.01,35.00,VWS V14.01,2013-01-24 16:45:00,
2013-01-24 08:50:00,32.9,32.7,30.21,NNW,343,0.0,2.0,99,0.00,,---,0.01,42.00,VWS V14.01,2013-01-24 16:50:00,
2013-01-24 08:55:00,32.9,32.7,30.21,ENE,67,1.0,4.0,99,0.00,,---,0.01,49.00,VWS V14.01,2013-01-24 16:55:00,
2013-01-24 09:00:00,33.0,32.8,30.21,ENE,68,2.0,3.0,99,0.00,,---,0.01,40.00,VWS V14.01,2013-01-24 17:00:00,
2013-01-24 09:05:00,33.1,32.8,30.22,ENE,68,0.0,3.0,99,0.00,,---,0.01,30.00,VWS V14.01,2013-01-24 17:05:00,
2013-01-24 09:10:00,33.1,32.8,30.22,ENE,68,0.0,0.0,99,0.00,,---,0.01,47.00,VWS V14.01,2013-01-24 17:10:00,
2013-01-24 09:15:00,33.2,33.0,30.22,ENE,68,0.0,1.0,99,0.00,,---,0.01,49.00,VWS V14.01,2013-01-24 17:15:00,
2013-01-24 09:20:00,33.2,33.0,30.22,ENE,68,1.0,3.0,99,0.00,,---,0.01,65.00,VWS V14.01,2013-01-24 17:20:00,
2013-01-24 09:25:00,33.2,33.0,30.21,East,90,3.0,3.0,99,0.00,,---,0.01,49.00,VWS V14.01,2013-01-24 17:25:00,
2013-01-24 09:30:00,33.1,32.8,30.22,ESE,106,2.0,3.0,99,0.00,,---,0.01,69.00,VWS V14.01,2013-01-24 17:30:00,
2013-01-24 09:35:00,33.2,33.0,30.22,ESE,106,2.0,3.0,99,0.00,,---,0.01,62.00,VWS V14.01,2013-01-24 17:35:00,
2013-01-24 09:40:00,33.3,33.0,30.22,ESE,105,0.0,3.0,99,0.00,,---,0.01,53.00,VWS V14.01,2013-01-24 17:40:00,
2013-01-24 09:45:00,33.2,33.0,30.21,East,88,0.0,4.0,99,0.00,,---,0.01,32.00,VWS V14.01,2013-01-24 17:45:00,
2013-01-24 09:50:00,33.2,33.0,30.21,East,87,3.0,3.0,99,0.00,,---,0.01,56.00,VWS V14.01,2013-01-24 17:50:00,
2013-01-24 09:55:00,33.1,32.8,30.21,East,87,1.0,3.0,99,0.00,,---,0.01,93.00,VWS V14.01,2013-01-24 17:55:00,
2013-01-24 10:00:00,33.1,32.8,30.22,East,87,1.0,1.0,99,0.00,,---,0.01,93.00,VWS V14.01,2013-01-24 18:00:00,
2013-01-24 10:05:00,33.1,32.8,30.22,East,87,0.0,1.0,99,0.00,,---,0.01,93.00,VWS V14.01,2013-01-24 18:05:00,
2013-01-24 10:10:00,33.1,32.8,30.22,WNW,294,2.0,3.0,99,0.00,,---,0.01,70.00,VWS V14.01,2013-01-24 18:10:00,
2013-01-24 10:15:00,33.1,32.8,30.22,WNW,294,2.0,3.0,99,0.00,,---,0.01,60.00,VWS V14.01,2013-01-24 18:15:00,
2013-01-24 10:20:00,33.2,33.0,30.22,WNW,294,0.0,0.0,99,0.00,,---,0.01,79.00,VWS V14.01,2013-01-24 18:20:00,
2013-01-24 10:25:00,33.3,33.0,30.22,WNW,293,0.0,2.0,99,0.00,,---,0.01,79.00,VWS V14.01,2013-01-24 18:25:00,
2013-01-24 10:30:00,33.3,33.0,30.22,South,180,0.0,2.0,99,0.00,,---,0.01,74.00,VWS V14.01,2013-01-24 18:30:00,
2013-01-24 10:35:00,33.3,33.0,30.22,South,180,0.0,3.0,99,0.00,,---,0.01,105.00,VWS V14.01,2013-01-24 18:35:00,
2013-01-24 10:40:00,33.4,33.2,30.22,South,180,0.0,2.0,99,0.00,,---,0.01,77.00,VWS V14.01,2013-01-24 18:40:00,
2013-01-24 10:45:00,33.6,33.3,30.22,South,180,1.0,2.0,99,0.00,,---,0.01,97.00,VWS V14.01,2013-01-24 18:45:00,
2013-01-24 10:50:00,33.7,33.5,30.22,South,180,2.0,4.0,99,0.00,,---,0.01,100.00,VWS V14.01,2013-01-24 18:50:00,
2013-01-24 10:55:00,33.7,33.5,30.22,South,180,0.0,4.0,99,0.00,,---,0.01,95.00,VWS V14.01,2013-01-24 18:55:00,
2013-01-24 11:00:00,33.8,33.5,30.22,South,180,0.0,1.0,99,0.00,,---,0.01,114.00,VWS V14.01,2013-01-24 19:00:00,
2013-01-24 11:05:00,33.9,33.7,30.21,South,180,0.0,2.0,99,0.00,,---,0.01,113.00,VWS V14.01,2013-01-24 19:05:00,
2013-01-24 11:10:00,34.0,33.8,30.21,South,180,0.0,1.0,99,0.00,,---,0.01,123.00,VWS V14.01,2013-01-24 19:10:00,
2013-01-24 11:15:00,34.2,34.0,30.21,South,180,0.0,1.0,99,0.00,,---,0.01,120.00,VWS V14.01,2013-01-24 19:15:00,
2013-01-24 11:20:00,34.3,34.0,30.21,South,180,1.0,3.0,99,0.00,,---,0.01,120.00,VWS V14.01,2013-01-24 19:20:00,
2013-01-24 11:25:00,34.6,34.3,30.21,South,188,0.0,4.0,99,0.00,,---,0.01,114.00,VWS V14.01,2013-01-24 19:25:00,
2013-01-24 11:30:00,34.7,34.5,30.21,South,187,0.0,3.0,99,0.00,,---,0.01,109.00,VWS V14.01,2013-01-24 19:30:00,
2013-01-24 11:35:00,34.7,34.5,30.21,South,187,3.0,3.0,99,0.00,,---,0.01,100.00,VWS V14.01,2013-01-24 19:35:00,
2013-01-24 11:40:00,34.6,34.3,30.21,South,187,0.0,3.0,99,0.00,,---,0.01,88.00,VWS V14.01,2013-01-24 19:40:00,
2013-01-24 11:45:00,34.7,34.5,30.21,South,187,2.0,4.0,99,0.00,,---,0.01,116.00,VWS V14.01,2013-01-24 19:45:00,
2013-01-24 11:50:00,34.7,34.5,30.20,South,187,1.0,3.0,99,0.00,,---,0.01,102.00,VWS V14.01,2013-01-24 19:50:00,
2013-01-24 11:55:00,34.7,34.5,30.20,South,187,1.0,3.0,99,0.00,,---,0.01,142.00,VWS V14.01,2013-01-24 19:55:00,
2013-01-24 12:00:00,34.9,34.7,30.20,South,187,2.0,3.0,99,0.00,,---,0.01,111.00,VWS V14.01,2013-01-24 20:00:00,
2013-01-24 12:05:00,35.0,34.8,30.20,South,187,2.0,3.0,99,0.00,,---,0.01,83.00,VWS V14.01,2013-01-24 20:05:00,
2013-01-24 12:10:00,35.0,34.8,30.19,South,187,0.0,2.0,99,0.00,,---,0.01,114.00,VWS V14.01,2013-01-24 20:10:00,
2013-01-24 12:15:00,35.2,35.0,30.18,South,173,0.0,4.0,99,0.00,,---,0.01,199.00,VWS V14.01,2013-01-24 20:15:00,
2013-01-24 12:20:00,35.3,35.0,30.18,South,173,0.0,3.0,99,0.00,,---,0.01,257.00,VWS V14.01,2013-01-24 20:20:00,
2013-01-24 12:25:00,35.5,35.2,30.18,South,173,1.0,3.0,99,0.00,,---,0.01,176.00,VWS V14.01,2013-01-24 20:25:00,
2013-01-24 12:30:00,35.6,35.3,30.19,SSW,211,4.0,6.0,99,0.00,,---,0.01,142.00,VWS V14.01,2013-01-24 20:30:00,
2013-01-24 12:35:00,35.6,35.3,30.19,South,181,1.0,6.0,99,0.00,,---,0.01,156.00,VWS V14.01,2013-01-24 20:35:00,
2013-01-24 12:40:00,35.6,35.3,30.18,South,182,0.0,7.0,99,0.00,,---,0.01,100.00,VWS V14.01,2013-01-24 20:40:00,
2013-01-24 12:45:00,35.7,35.5,30.18,South,176,3.0,7.0,99,0.00,,---,0.01,128.00,VWS V14.01,2013-01-24 20:45:00,
2013-01-24 12:50:00,35.6,35.3,30.17,South,186,5.0,6.0,99,0.00,,---,0.01,91.00,VWS V14.01,2013-01-24 20:50:00,
2013-01-24 12:55:00,35.6,35.3,30.17,SSE,156,1.0,6.0,99,0.00,,---,0.01,86.00,VWS V14.01,2013-01-24 20:55:00,
2013-01-24 13:00:00,35.7,35.5,30.17,SSW,202,0.0,5.0,99,0.00,,---,0.01,81.00,VWS V14.01,2013-01-24 21:00:00,
2013-01-24 13:05:00,35.7,35.5,30.17,SSW,192,2.0,5.0,99,0.00,,---,0.01,72.00,VWS V14.01,2013-01-24 21:05:00,
2013-01-24 13:10:00,35.7,35.5,30.17,South,186,0.0,4.0,99,0.00,,---,0.01,70.00,VWS V14.01,2013-01-24 21:10:00,
2013-01-24 13:15:00,35.8,35.5,30.17,South,181,2.0,4.0,99,0.00,,---,0.01,81.00,VWS V14.01,2013-01-24 21:15:00,
2013-01-24 13:20:00,35.8,35.5,30.17,South,178,3.0,5.0,99,0.00,,---,0.01,84.00,VWS V14.01,2013-01-24 21:20:00,
2013-01-24 13:25:00,35.9,35.7,30.16,South,169,2.0,5.0,99,0.00,,---,0.01,90.00,VWS V14.01,2013-01-24 21:25:00,
2013-01-24 13:30:00,36.0,35.8,30.16,SSE,160,4.0,4.0,99,0.00,,---,0.01,100.00,VWS V14.01,2013-01-24 21:30:00,
2013-01-24 13:35:00,36.0,35.8,30.16,SSE,162,2.0,6.0,99,0.00,,---,0.01,109.00,VWS V14.01,2013-01-24 21:35:00,
2013-01-24 13:40:00,36.2,36.0,30.15,SSE,167,4.0,4.0,99,0.00,,---,0.01,134.00,VWS V14.01,2013-01-24 21:40:00,
2013-01-24 13:45:00,36.3,36.0,30.16,South,182,2.0,4.0,99,0.00,,---,0.01,118.00,VWS V14.01,2013-01-24 21:45:00,
2013-01-24 13:50:00,36.4,36.2,30.15,South,183,2.0,5.0,99,0.00,,---,0.01,128.00,VWS V14.01,2013-01-24 21:50:00,
2013-01-24 13:55:00,36.5,36.2,30.16,South,183,3.0,5.0,99,0.00,,---,0.01,93.00,VWS V14.01,2013-01-24 21:55:00,
2013-01-24 14:00:00,36.6,36.3,30.16,South,182,3.0,4.0,99,0.00,,---,0.01,102.00,VWS V14.01,2013-01-24 22:00:00,
2013-01-24 14:05:00,36.7,36.5,30.15,South,182,2.0,4.0,99,0.00,,---,0.01,95.00,VWS V14.01,2013-01-24 22:05:00,
2013-01-24 14:10:00,36.7,36.5,30.15,South,182,1.0,5.0,99,0.00,,---,0.01,95.00,VWS V14.01,2013-01-24 22:10:00,
2013-01-24 14:15:00,36.9,36.7,30.15,South,191,2.0,7.0,99,0.00,,---,0.01,137.00,VWS V14.01,2013-01-24 22:15:00,
2013-01-24 14:20:00,37.0,36.8,30.15,SSW,192,0.0,3.0,99,0.00,,---,0.01,128.00,VWS V14.01,2013-01-24 22:20:00,
2013-01-24 14:25:00,37.1,36.8,30.15,SSW,200,0.0,4.0,99,0.00,,---,0.01,137.00,VWS V14.01,2013-01-24 22:25:00,
2013-01-24 14:30:00,37.0,36.8,30.16,SSW,206,4.0,5.0,99,0.00,,---,0.01,132.00,VWS V14.01,2013-01-24 22:30:00,
2013-01-24 14:35:00,37.1,36.8,30.15,SSW,206,3.0,5.0,99,0.00,,---,0.01,197.00,VWS V14.01,2013-01-24 22:35:00,
2013-01-24 14:40:00,37.2,37.0,30.15,SSW,209,4.0,5.0,99,0.00,,---,0.01,134.00,VWS V14.01,2013-01-24 22:40:00,
2013-01-24 14:45:00,37.3,37.0,30.15,SSW,201,2.0,5.0,99,0.00,,---,0.01,113.00,VWS V14.01,2013-01-24 22:45:00,
2013-01-24 14:50:00,37.4,37.2,30.15,SSW,201,2.0,4.0,99,0.00,,---,0.01,114.00,VWS V14.01,2013-01-24 22:50:00,
2013-01-24 14:55:00,37.3,37.0,30.15,South,182,2.0,5.0,99,0.00,,---,0.01,104.00,VWS V14.01,2013-01-24 22:55:00,
2013-01-24 15:00:00,37.3,37.0,30.15,South,182,4.0,4.0,99,0.00,,---,0.01,109.00,VWS V14.01,2013-01-24 23:00:00,
2013-01-24 15:05:00,37.4,37.2,30.15,South,182,0.0,4.0,99,0.00,,---,0.01,97.00,VWS V14.01,2013-01-24 23:05:00,
2013-01-24 15:10:00,37.4,37.2,30.15,South,182,2.0,4.0,99,0.00,,---,0.01,84.00,VWS V14.01,2013-01-24 23:10:00,
2013-01-24 15:15:00,37.5,37.2,30.15,South,182,4.0,5.0,99,0.00,,---,0.01,81.00,VWS V14.01,2013-01-24 23:15:00,
2013-01-24 15:20:00,37.6,37.3,30.15,South,188,3.0,6.0,99,0.00,,---,0.01,76.00,VWS V14.01,2013-01-24 23:20:00,
2013-01-24 15:25:00,37.8,37.5,30.15,South,188,2.0,6.0,99,0.00,,---,0.01,70.00,VWS V14.01,2013-01-24 23:25:00,
2013-01-24 15:30:00,37.9,37.6,30.15,South,183,1.0,3.0,99,0.00,,---,0.01,65.00,VWS V14.01,2013-01-24 23:30:00,
2013-01-24 15:35:00,37.9,37.6,30.15,South,178,2.0,4.0,99,0.00,,---,0.01,56.00,VWS V14.01,2013-01-24 23:35:00,
2013-01-24 15:40:00,37.9,37.6,30.15,SSE,168,3.0,5.0,99,0.00,,---,0.01,54.00,VWS V14.01,2013-01-24 23:40:00,
2013-01-24 15:45:00,37.9,37.6,30.15,SSE,168,3.0,5.0,99,0.00,,---,0.01,44.00,VWS V14.01,2013-01-24 23:45:00,
2013-01-24 15:50:00,38.0,37.7,30.15,SSW,202,0.0,4.0,99,0.00,,---,0.01,42.00,VWS V14.01,2013-01-24 23:50:00,
2013-01-24 15:55:00,38.0,37.7,30.15,SSW,202,1.0,4.0,99,0.00,,---,0.01,40.00,VWS V14.01,2013-01-24 23:55:00,
2013-01-24 16:00:00,38.0,37.7,30.15,SSW,202,3.0,3.0,99,0.00,,---,0.01,47.00,VWS V14.01,2013-01-25 00:00:00,
2013-01-24 16:05:00,38.1,37.8,30.15,SSW,202,0.0,3.0,99,0.00,,---,0.01,30.00,VWS V14.01,2013-01-25 00:05:00,
2013-01-24 16:10:00,38.1,37.8,30.16,SSW,202,0.0,2.0,99,0.00,,---,0.01,18.00,VWS V14.01,2013-01-25 00:10:00,
2013-01-24 16:15:00,38.1,37.8,30.16,SSW,202,1.0,4.0,99,0.00,,---,0.01,14.00,VWS V14.01,2013-01-25 00:15:00,
2013-01-24 16:20:00,38.1,37.8,30.16,SSW,202,2.0,2.0,99,0.00,,---,0.01,11.00,VWS V14.01,2013-01-25 00:20:00,
2013-01-24 16:25:00,38.1,37.8,30.16,SSW,202,0.0,3.0,99,0.00,,---,0.01,11.00,VWS V14.01,2013-01-25 00:25:00,
2013-01-24 16:30:00,38.1,37.8,30.16,SSW,202,0.0,0.0,99,0.00,,---,0.01,11.00,VWS V14.01,2013-01-25 00:30:00,
2013-01-24 16:35:00,38.1,37.8,30.16,SSW,202,0.0,2.0,99,0.00,,---,0.01,9.00,VWS V14.01,2013-01-25 00:35:00,
2013-01-24 16:40:00,38.1,37.8,30.16,SSW,202,2.0,3.0,99,0.00,,---,0.01,7.00,VWS V14.01,2013-01-25 00:40:00,
2013-01-24 16:45:00,38.1,37.8,30.16,SSW,202,0.0,3.0,99,0.00,,---,0.01,5.00,VWS V14.01,2013-01-25 00:45:00,
2013-01-24 16:50:00,38.2,37.9,30.16,SSW,202,0.0,0.0,99,0.00,,---,0.01,5.00,VWS V14.01,2013-01-25 00:50:00,
2013-01-24 16:55:00,38.1,37.8,30.16,SSW,202,0.0,2.0,99,0.00,,---,0.01,0.00,VWS V14.01,2013-01-25 00:55:00,
2013-01-24 17:00:00,38.1,37.8,30.16,SSW,202,0.0,2.0,99,0.00,,---,0.01,0.00,VWS V14.01,2013-01-25 01:00:00,
2013-01-24 17:05:00,38.1,37.8,30.16,SSW,202,0.0,2.0,99,0.00,,---,0.01,0.00,VWS V14.01,2013-01-25 01:05:00,
2013-01-24 17:10:00,38.1,37.8,30.16,SSW,202,0.0,1.0,99,0.01,,---,0.02,0.00,VWS V14.01,2013-01-25 01:10:00,
2013-01-24 17:15:00,38.1,37.8,30.16,SSW,202,0.0,1.0,99,0.01,,---,0.02,0.00,VWS V14.01,2013-01-25 01:15:00,
2013-01-24 17:20:00,38.1,37.8,30.16,SSW,202,0.0,0.0,99,0.01,,---,0.02,0.00,VWS V14.01,2013-01-25 01:20:00,
2013-01-24 17:25:00,38.2,37.9,30.16,SSW,202,0.0,1.0,99,0.01,,---,0.02,0.00,VWS V14.01,2013-01-25 01:25:00,
2013-01-24 17:30:00,38.2,37.9,30.16,SSW,202,0.0,0.0,99,0.02,,---,0.03,0.00,VWS V14.01,2013-01-25 01:30:00,
2013-01-24 17:35:00,38.2,37.9,30.16,SSW,202,1.0,1.0,99,0.02,,---,0.03,0.00,VWS V14.01,2013-01-25 01:35:00,
2013-01-24 17:40:00,38.2,37.9,30.16,SSW,202,0.0,0.0,99,0.02,,---,0.03,0.00,VWS V14.01,2013-01-25 01:40:00,
2013-01-24 17:45:00,38.2,37.9,30.16,SSW,202,0.0,0.0,99,0.03,,---,0.04,0.00,VWS V14.01,2013-01-25 01:45:00,
2013-01-24 17:50:00,38.2,37.9,30.16,SSW,202,0.0,0.0,99,0.03,,---,0.04,0.00,VWS V14.01,2013-01-25 01:50:00,
2013-01-24 17:55:00,38.2,37.9,30.17,SSW,202,0.0,0.0,99,0.04,,---,0.05,0.00,VWS V14.01,2013-01-25 01:55:00,
2013-01-24 18:00:00,38.2,37.9,30.16,SSW,202,0.0,0.0,99,0.05,,---,0.06,0.00,VWS V14.01,2013-01-25 02:00:00,
2013-01-24 18:05:00,38.2,37.9,30.17,SSW,202,0.0,1.0,99,0.05,,---,0.06,0.00,VWS V14.01,2013-01-25 02:05:00,
2013-01-24 18:10:00,38.2,37.9,30.17,SSW,202,0.0,0.0,99,0.05,,---,0.06,0.00,VWS V14.01,2013-01-25 02:10:00,
2013-01-24 18:15:00,38.2,37.9,30.17,SSW,202,0.0,0.0,99,0.05,,---,0.06,0.00,VWS V14.01,2013-01-25 02:15:00,
2013-01-24 18:20:00,38.2,37.9,30.17,SSW,202,0.0,1.0,99,0.05,,---,0.07,0.00,VWS V14.01,2013-01-25 02:20:00,
2013-01-24 18:25:00,38.3,38.0,30.17,SSW,202,0.0,1.0,99,0.05,,---,0.07,0.00,VWS V14.01,2013-01-25 02:25:00,
2013-01-24 18:30:00,38.3,38.0,30.17,SSW,202,0.0,0.0,99,0.06,,---,0.08,0.00,VWS V14.01,2013-01-25 02:30:00,
2013-01-24 18:35:00,38.3,38.0,30.17,SSW,202,0.0,0.0,99,0.06,,---,0.08,0.00,VWS V14.01,2013-01-25 02:35:00,
2013-01-24 18:40:00,38.3,38.0,30.17,SSW,202,0.0,0.0,99,0.06,,---,0.09,0.00,VWS V14.01,2013-01-25 02:40:00,
2013-01-24 18:45:00,38.3,38.0,30.17,SSW,202,0.0,0.0,99,0.07,,---,0.10,0.00,VWS V14.01,2013-01-25 02:45:00,
2013-01-24 18:50:00,38.4,38.1,30.17,SSW,202,0.0,0.0,99,0.07,,---,0.11,0.00,VWS V14.01,2013-01-25 02:50:00,
2013-01-24 18:55:00,38.4,38.1,30.16,SSW,202,1.0,2.0,99,0.08,,---,0.12,0.00,VWS V14.01,2013-01-25 02:55:00,
2013-01-24 19:00:00,38.4,38.1,30.16,SSW,202,0.0,1.0,99,0.07,,---,0.12,0.00,VWS V14.01,2013-01-25 03:00:00,
2013-01-24 19:05:00,38.4,38.1,30.16,SSW,202,1.0,2.0,99,0.08,,---,0.13,0.00,VWS V14.01,2013-01-25 03:05:00,
2013-01-24 19:10:00,38.4,38.1,30.15,SSW,202,2.0,2.0,99,0.08,,---,0.14,0.00,VWS V14.01,2013-01-25 03:10:00,
2013-01-24 19:15:00,38.5,38.2,30.16,SSW,202,3.0,3.0,99,0.10,,---,0.16,0.00,VWS V14.01,2013-01-25 03:15:00,
2013-01-24 19:20:00,38.6,38.3,30.17,WSW,238,0.0,2.0,99,0.10,,---,0.17,0.00,VWS V14.01,2013-01-25 03:20:00,
2013-01-24 19:25:00,38.6,38.3,30.17,WSW,238,0.0,2.0,99,0.10,,---,0.17,0.00,VWS V14.01,2013-01-25 03:25:00,
2013-01-24 19:30:00,38.8,38.5,30.17,WSW,238,0.0,3.0,99,0.09,,---,0.17,0.00,VWS V14.01,2013-01-25 03:30:00,
2013-01-24 19:35:00,38.9,38.6,30.17,WSW,238,0.0,3.0,99,0.09,,---,0.17,0.00,VWS V14.01,2013-01-25 03:35:00,
2013-01-24 19:40:00,38.9,38.6,30.17,WSW,238,0.0,0.0,99,0.08,,---,0.17,0.00,VWS V14.01,2013-01-25 03:40:00,
2013-01-24 19:45:00,39.0,38.7,30.17,WSW,238,2.0,2.0,99,0.09,,---,0.18,0.00,VWS V14.01,2013-01-25 03:45:00,
2013-01-24 19:50:00,39.1,38.8,30.17,WSW,238,1.0,2.0,99,0.08,,---,0.18,0.00,VWS V14.01,2013-01-25 03:50:00,
2013-01-24 19:55:00,39.1,38.8,30.17,WSW,238,2.0,2.0,99,0.08,,---,0.18,0.00,VWS V14.01,2013-01-25 03:55:00,
2013-01-24 20:00:00,39.2,38.9,30.16,WSW,238,0.0,1.0,99,0.06,,---,0.18,0.00,VWS V14.01,2013-01-25 04:00:00,
2013-01-24 20:05:00,39.3,39.0,30.16,WSW,238,1.0,1.0,99,0.06,,---,0.18,0.00,VWS V14.01,2013-01-25 04:05:00,
2013-01-24 20:10:00,39.4,39.1,30.16,WSW,238,1.0,2.0,99,0.04,,---,0.18,0.00,VWS V14.01,2013-01-25 04:10:00,
2013-01-24 20:15:00,39.5,39.2,30.16,WSW,238,2.0,3.0,99,0.04,,---,0.18,0.00,VWS V14.01,2013-01-25 04:15:00,
2013-01-24 20:20:00,39.5,39.2,30.17,WSW,238,0.0,2.0,99,0.02,,---,0.18,0.00,VWS V14.01,2013-01-25 04:20:00,
2013-01-24 20:25:00,39.5,39.2,30.17,WSW,238,1.0,2.0,99,0.03,,---,0.19,0.00,VWS V14.01,2013-01-25 04:25:00,
2013-01-24 20:30:00,39.5,39.2,30.16,WSW,238,0.0,3.0,99,0.02,,---,0.19,0.00,VWS V14.01,2013-01-25 04:30:00,
2013-01-24 20:35:00,39.5,39.2,30.17,WSW,238,0.0,3.0,99,0.02,,---,0.19,0.00,VWS V14.01,2013-01-25 04:35:00,
2013-01-24 20:40:00,39.6,39.3,30.17,SW,227,3.0,3.0,99,0.02,,---,0.19,0.00,VWS V14.01,2013-01-25 04:40:00,
2013-01-24 20:45:00,39.7,39.4,30.17,SW,227,0.0,3.0,99,0.03,,---,0.20,0.00,VWS V14.01,2013-01-25 04:45:00,
2013-01-24 20:50:00,39.8,39.5,30.17,SW,227,1.0,2.0,99,0.02,,---,0.20,0.00,VWS V14.01,2013-01-25 04:50:00,
2013-01-24 20:55:00,39.9,39.6,30.17,SW,227,1.0,2.0,99,0.02,,---,0.20,0.00,VWS V14.01,2013-01-25 04:55:00,
2013-01-24 21:00:00,40.0,39.7,30.17,SW,227,0.0,2.0,99,0.03,,---,0.21,0.00,VWS V14.01,2013-01-25 05:00:00,
2013-01-24 21:01:00,40.0,39.7,30.17,SW,227,2.0,2.0,99,0.03,,---,0.21,0.00,VWS V14.01,2013-01-25 05:01:00,
2013-01-24 21:02:00,40.1,39.8,30.17,SW,227,3.0,3.0,99,0.03,,---,0.21,0.00,VWS V14.01,2013-01-25 05:02:00,
2013-01-24 21:07:00,40.2,39.9,30.17,SW,227,1.0,3.0,99,0.03,,---,0.21,0.00,VWS V14.01,2013-01-25 05:07:00,
2013-01-24 21:10:00,40.2,39.9,30.17,SW,227,2.0,3.0,99,0.03,,---,0.21,0.00,VWS V14.01,2013-01-25 05:10:00,
2013-01-24 21:12:00,40.2,39.9,30.17,SW,221,0.0,3.0,99,0.03,,---,0.21,0.00,VWS V14.01,2013-01-25 05:12:00,
2013-01-24 21:17:00,40.2,39.9,30.17,South,191,0.0,5.0,99,0.04,,---,0.22,0.00,VWS V14.01,2013-01-25 05:17:00,
2013-01-24 21:20:00,40.2,39.9,30.17,South,191,1.0,5.0,99,0.04,,---,0.22,0.00,VWS V14.01,2013-01-25 05:20:00,
2013-01-24 21:22:00,40.2,39.9,30.17,South,189,1.0,4.0,99,0.04,,---,0.22,0.00,VWS V14.01,2013-01-25 05:22:00,
2013-01-24 21:27:00,40.2,39.9,30.17,South,189,0.0,4.0,99,0.04,,---,0.22,0.00,VWS V14.01,2013-01-25 05:27:00,
2013-01-24 21:30:00,40.2,39.9,30.17,South,189,1.0,4.0,99,0.04,,---,0.22,0.00,VWS V14.01,2013-01-25 05:30:00,
2013-01-24 21:32:00,40.1,39.8,30.17,South,189,1.0,4.0,99,0.03,,---,0.22,0.00,VWS V14.01,2013-01-25 05:32:00,
2013-01-24 21:37:00,40.0,39.7,30.17,South,189,0.0,4.0,99,0.03,,---,0.22,0.00,VWS V14.01,2013-01-25 05:37:00,
2013-01-24 21:40:00,40.1,39.8,30.17,South,189,0.0,4.0,99,0.03,,---,0.22,0.00,VWS V14.01,2013-01-25 05:40:00,
2013-01-24 21:42:00,40.0,39.7,30.17,South,189,1.0,4.0,99,0.03,,---,0.22,0.00,VWS V14.01,2013-01-25 05:42:00,
2013-01-24 21:47:00,40.0,39.7,30.17,South,189,0.0,4.0,99,0.04,,---,0.23,0.00,VWS V14.01,2013-01-25 05:47:00,
2013-01-24 21:50:00,40.0,39.7,30.17,South,189,0.0,4.0,99,0.04,,---,0.23,0.00,VWS V14.01,2013-01-25 05:50:00,
2013-01-24 21:52:00,40.1,39.8,30.17,South,189,2.0,3.0,99,0.03,,---,0.23,0.00,VWS V14.01,2013-01-25 05:52:00,
2013-01-24 21:57:00,40.1,39.8,30.17,South,189,1.0,4.0,99,0.03,,---,0.23,0.00,VWS V14.01,2013-01-25 05:57:00,
2013-01-24 22:00:00,40.1,39.8,30.17,South,189,2.0,4.0,99,0.03,,---,0.23,0.00,VWS V14.01,2013-01-25 06:00:00,
2013-01-24 22:02:00,40.1,39.8,30.18,South,189,0.0,2.0,99,0.03,,---,0.23,0.00,VWS V14.01,2013-01-25 06:02:00,
2013-01-24 22:07:00,40.1,39.8,30.17,South,189,0.0,4.0,99,0.04,,---,0.24,0.00,VWS V14.01,2013-01-25 06:07:00,
2013-01-24 22:10:00,40.1,39.8,30.17,South,189,0.0,4.0,99,0.04,,---,0.24,0.00,VWS V14.01,2013-01-25 06:10:00,
2013-01-24 22:12:00,40.2,39.9,30.17,South,189,0.0,2.0,99,0.03,,---,0.24,0.00,VWS V14.01,2013-01-25 06:12:00,
2013-01-24 22:17:00,40.3,40.0,30.17,South,189,1.0,2.0,99,0.03,,---,0.24,0.00,VWS V14.01,2013-01-25 06:17:00,
2013-01-24 22:20:00,40.3,40.0,30.17,South,189,1.0,2.0,99,0.03,,---,0.24,0.00,VWS V14.01,2013-01-25 06:20:00,
2013-01-24 22:22:00,40.3,40.0,30.17,South,189,0.0,1.0,99,0.02,,---,0.24,0.00,VWS V14.01,2013-01-25 06:22:00,
2013-01-24 22:27:00,40.4,40.1,30.17,South,189,0.0,2.0,99,0.02,,---,0.24,0.00,VWS V14.01,2013-01-25 06:27:00,
2013-01-24 22:30:00,40.4,40.1,30.17,South,189,0.0,2.0,99,0.02,,---,0.24,0.00,VWS V14.01,2013-01-25 06:30:00,
2013-01-24 22:32:00,40.7,40.4,30.18,South,190,2.0,4.0,99,0.03,,---,0.25,0.00,VWS V14.01,2013-01-25 06:32:00,
2013-01-24 22:37:00,40.9,40.6,30.18,South,190,0.0,4.0,99,0.03,,---,0.25,0.00,VWS V14.01,2013-01-25 06:37:00,
2013-01-24 22:40:00,40.9,40.6,30.18,South,190,0.0,4.0,99,0.03,,---,0.25,0.00,VWS V14.01,2013-01-25 06:40:00,
2013-01-24 22:42:00,41.1,40.8,30.18,South,190,0.0,2.0,99,0.03,,---,0.25,0.00,VWS V14.01,2013-01-25 06:42:00,
2013-01-24 22:47:00,41.2,40.9,30.17,South,190,2.0,3.0,99,0.03,,---,0.25,0.00,VWS V14.01,2013-01-25 06:47:00,
2013-01-24 22:50:00,41.3,41.0,30.17,South,190,1.0,3.0,99,0.03,,---,0.25,0.00,VWS V14.01,2013-01-25 06:50:00,
2013-01-24 22:52:00,41.3,41.0,30.17,South,190,0.0,2.0,99,0.03,,---,0.26,0.00,VWS V14.01,2013-01-25 06:52:00,
2013-01-24 22:57:00,41.2,40.9,30.18,South,190,0.0,2.0,99,0.03,,---,0.26,0.00,VWS V14.01,2013-01-25 06:57:00,
2013-01-24 23:00:00,41.2,40.9,30.18,South,190,0.0,2.0,99,0.03,,---,0.26,0.00,VWS V14.01,2013-01-25 07:00:00,
2013-01-24 23:02:00,41.2,40.9,30.18,South,190,0.0,3.0,99,0.03,,---,0.26,0.00,VWS V14.01,2013-01-25 07:02:00,
2013-01-24 23:07:00,41.2,40.9,30.17,South,190,0.0,3.0,99,0.03,,---,0.26,0.00,VWS V14.01,2013-01-25 07:07:00,
2013-01-24 23:10:00,41.2,40.9,30.17,South,190,0.0,3.0,99,0.03,,---,0.26,0.00,VWS V14.01,2013-01-25 07:10:00,
2013-01-24 23:12:00,41.2,40.9,30.18,South,190,0.0,3.0,99,0.02,,---,0.26,0.00,VWS V14.01,2013-01-25 07:12:00,
2013-01-24 23:17:00,41.3,41.0,30.18,South,190,0.0,3.0,99,0.02,,---,0.26,0.00,VWS V14.01,2013-01-25 07:17:00,
2013-01-24 23:20:00,41.3,41.0,30.18,South,190,0.0,3.0,99,0.02,,---,0.26,0.00,VWS V14.01,2013-01-25 07:20:00,
2013-01-24 23:22:00,41.3,41.0,30.18,South,190,0.0,0.0,99,0.02,,---,0.26,0.00,VWS V14.01,2013-01-25 07:22:00,
2013-01-24 23:27:00,41.3,41.0,30.17,South,190,1.0,2.0,99,0.02,,---,0.26,0.00,VWS V14.01,2013-01-25 07:27:00,
2013-01-24 23:30:00,41.4,41.1,30.17,South,190,1.0,2.0,99,0.02,,---,0.26,0.00,VWS V14.01,2013-01-25 07:30:00,
2013-01-24 23:32:00,41.6,41.3,30.17,South,190,0.0,3.0,99,0.02,,---,0.26,0.00,VWS V14.01,2013-01-25 07:32:00,
2013-01-24 23:37:00,42.0,41.7,30.18,SSW,195,2.0,6.0,99,0.03,,---,0.27,0.00,VWS V14.01,2013-01-25 07:37:00,
2013-01-24 23:40:00,42.0,41.7,30.18,SSW,195,0.0,6.0,99,0.03,,---,0.27,0.00,VWS V14.01,2013-01-25 07:40:00,
2013-01-24 23:42:00,42.3,42.0,30.17,SSW,195,1.0,3.0,99,0.02,,---,0.27,0.00,VWS V14.01,2013-01-25 07:42:00,
2013-01-24 23:47:00,42.7,42.4,30.17,SSW,201,0.0,4.0,99,0.02,,---,0.27,0.00,VWS V14.01,2013-01-25 07:47:00,
2013-01-24 23:50:00,42.8,42.5,30.17,SSW,201,0.0,4.0,99,0.02,,---,0.27,0.00,VWS V14.01,2013-01-25 07:50:00,
2013-01-24 23:52:00,42.9,42.6,30.18,SSW,201,0.0,3.0,99,0.02,,---,0.27,0.00,VWS V14.01,2013-01-25 07:52:00,
2013-01-24 23:57:00,43.2,42.9,30.18,SSW,202,2.0,4.0,99,0.02,,---,0.27,0.00,VWS V14.01,2013-01-25 07:57:00,